Location: Unspecified
(9.5617°N, 0.0000°E)
Time: 09:27:25
(UTC+00:00)

Vanguard 1 Rocket - All Passes

Search period start: 04 April 2026 00:00
Search period end: 14 April 2026 00:00
Orbit: 654 x 4213 km, 34.3° (Epoch: 28 March)

Date Brightness Start Highest point End Pass type
(mag) Time Alt. Az. Time Alt. Az. Time Alt. Az.
4 Apr - 00:49:51 10° W 01:11:38 43° NNW 01:24:35 10° NE visible
4 Apr - 03:34:24 10° NW 03:42:56 17° NNW 03:48:55 10° NNE visible
4 Apr - 06:08:58 10° NNW 06:13:02 15° N 06:16:15 10° NE daylight
4 Apr - 08:34:27 10° NW 08:39:24 80° NE 08:43:51 10° ESE daylight
4 Apr - 18:31:51 10° SSW 18:48:46 26° SE 19:07:55 10° E visible
4 Apr - 20:57:32 10° SW 21:22:52 66° SE 21:44:33 10° ENE visible
4 Apr - 23:30:21 10° WSW 23:55:54 61° NW 00:12:12 10° NE visible
5 Apr - 02:12:52 10° WNW 02:27:47 26° NNW 02:37:08 10° NNE visible
5 Apr - 04:53:58 10° NNW 04:59:02 15° N 05:02:54 10° NNE visible
5 Apr - 07:21:46 10° NW 07:27:12 34° NNE 07:31:18 10° E daylight
5 Apr - 09:48:37 10° W 09:51:59 21° SW 09:55:33 10° SSE daylight
5 Apr - 17:21:57 10° S 17:31:31 14° SE 17:42:38 10° ESE daylight
5 Apr - 19:43:37 10° SSW 20:05:56 48° SE 20:28:41 10° ENE visible
5 Apr - 22:12:53 10° WSW 22:39:31 82° NW 22:59:08 10° NE visible
6 Apr - 00:51:10 10° W 01:12:11 38° NNW 01:25:04 10° NE visible
6 Apr - 03:35:41 10° NW 03:44:19 18° N 03:50:19 10° NNE visible
6 Apr - 06:08:33 10° NNW 06:14:13 21° NNE 06:18:16 10° ENE daylight
6 Apr - 08:35:03 10° WNW 08:40:01 58° SW 08:44:22 10° SE daylight
6 Apr - 18:31:04 10° SSW 18:49:08 32° SE 19:10:13 10° E visible
6 Apr - 20:57:16 10° SW 21:22:40 77° SE 21:45:04 10° ENE visible
6 Apr - 23:31:03 10° WSW 23:56:04 53° NNW 00:12:33 10° NE visible
7 Apr - 02:14:39 10° WNW 02:28:56 24° NNW 02:38:02 10° NNE visible
7 Apr - 04:53:51 10° NW 05:00:24 18° N 05:05:02 10° NE visible
7 Apr - 07:21:51 10° NW 07:28:02 54° NNE 07:32:25 10° ESE daylight
7 Apr - 09:51:06 10° SW 09:52:39 11° SW 09:54:13 10° SSW daylight
7 Apr - 17:20:20 10° S 17:32:30 19° SE 17:47:22 10° ESE daylight
7 Apr - 19:43:10 10° SW 20:05:47 57° SE 20:29:34 10° ENE visible
7 Apr - 22:13:07 10° WSW 22:39:26 72° NW 22:59:26 10° NE visible
8 Apr - 00:52:44 10° W 01:12:56 34° NNW 01:25:39 10° NE visible
8 Apr - 03:36:31 10° NW 03:45:45 19° N 03:51:59 10° NE visible
8 Apr - 06:08:19 10° NW 06:15:19 30° NNE 06:19:54 10° E daylight
8 Apr - 08:35:57 10° WNW 08:40:33 33° SW 08:44:32 10° SSE daylight
8 Apr - 18:30:26 10° SSW 18:49:13 39° SE 19:11:55 10° ENE visible
8 Apr - 20:57:11 10° SW 21:22:26 87° SE 21:45:26 10° NE visible
8 Apr - 23:32:04 10° W 23:56:25 47° NNW 00:12:57 10° NE visible
9 Apr - 02:16:16 10° WNW 02:30:15 24° NNW 02:39:12 10° NE visible
9 Apr - 04:53:40 10° NW 05:01:43 23° N 05:06:57 10° ENE visible
9 Apr - 07:22:08 10° NW 07:28:43 89° NNE 07:33:13 10° SE daylight
9 Apr - 17:19:13 10° S 17:33:02 24° SE 17:50:45 10° E daylight
9 Apr - 19:42:54 10° SW 20:05:30 66° SE 20:30:11 10° ENE visible
9 Apr - 22:13:37 10° WSW 22:39:27 63° NNW 22:59:42 10° NE visible
10 Apr - 00:54:27 10° WNW 01:13:56 31° NNW 01:26:26 10° NE visible
10 Apr - 03:36:59 10° NW 03:47:11 22° N 03:53:47 10° NE visible
10 Apr - 06:08:12 10° NW 06:16:17 44° NNE 06:21:12 10° E daylight
10 Apr - 08:37:20 10° W 08:41:01 19° SW 08:44:16 10° S daylight
10 Apr - 16:12:24 10° SSE 16:16:58 11° SE 16:22:05 10° SE daylight
10 Apr - 18:29:59 10° SSW 18:49:03 46° SE 19:13:06 10° ENE visible
10 Apr - 20:57:19 10° WSW 21:22:14 82° NW 21:45:41 10° NE visible
10 Apr - 23:33:21 10° W 23:57:00 42° NNW 00:13:26 10° NE visible
11 Apr - 02:17:35 10° NW 02:31:40 24° N 02:40:36 10° NE visible
11 Apr - 04:53:29 10° NW 05:02:55 30° NNE 05:08:37 10° ENE visible
11 Apr - 07:22:39 10° WNW 07:29:16 56° SW 07:33:45 10° SE daylight
11 Apr - 17:18:26 10° SSW 17:33:13 29° SE 17:53:11 10° E daylight
11 Apr - 19:42:48 10° SW 20:05:11 76° SE 20:30:34 10° ENE visible
11 Apr - 22:14:23 10° WSW 22:39:39 55° NNW 22:59:59 10° NE visible
12 Apr - 00:56:10 10° WNW 01:15:09 29° NNW 01:27:25 10° NE visible
12 Apr - 03:37:09 10° NW 03:48:35 26° N 03:55:34 10° ENE visible
12 Apr - 06:08:14 10° NW 06:17:06 65° NNE 06:22:14 10° ESE daylight
12 Apr - 08:39:54 10° WSW 08:41:28 11° SW 08:42:55 10° SSW daylight
12 Apr - 16:09:16 10° SSE 16:17:45 15° SE 16:28:26 10° ESE daylight
12 Apr - 18:29:41 10° SSW 18:48:46 55° SE 19:13:53 10° ENE visible
12 Apr - 20:57:42 10° WSW 21:22:09 73° NW 21:45:51 10° NE visible
12 Apr - 23:34:52 10° W 23:57:51 38° NNW 00:14:04 10° NE visible
13 Apr - 02:18:32 10° NW 02:33:08 26° N 02:42:12 10° NE visible
13 Apr - 04:53:18 10° NW 05:04:01 40° NNE 05:10:02 10° E visible
13 Apr - 07:23:26 10° WNW 07:29:39 35° SW 07:33:59 10° SSE daylight
13 Apr - 17:17:52 10° SSW 17:33:10 36° SE 17:54:54 10° ENE daylight
13 Apr - 19:42:53 10° SW 20:04:55 87° SE 20:30:46 10° NE visible
13 Apr - 22:15:26 10° W 22:40:04 49° NNW 23:00:20 10° NE visible
